sat.trackr.live / text

‹ back to catalog

GLOBAL-33

NORAD 66554 · 2025-267A

PAYLOAD ACTIVE UNKNOWN

§ Identity

Operator
Country
US
Launch date
2025-11-20
Launch site
RLLB
Launch vehicle
Mass (kg)
RCS (m²)

External: N2YO · Heavens-Above · Gunter

§ Orbital elements

Epoch: 2026-05-25T03:48:00.742752Z

Period
93.74 min
Inclination
42.0184°
Eccentricity
0.0007092
Mean motion
15.36117662 rev/d
Perigee alt
452.8 km
Apogee alt
462.5 km
Semi-major
6,835.7 km
B*
2.6738e-4
RAAN
190.2203°
Arg perigee
103.8181°
Mean anomaly
256.3447°
Rev number
2,850

§ Raw data

GLOBAL-331 66554U 25267A   26145.15834193  .00009372  00000+0  26738-3 0  99992 66554  42.0184 190.2203 0007092 103.8181 256.3447 15.36117662 28508

JSON: /api/v1/satellites/66554 · /tle

For live sub-satellite position, see the globe view (requires WebGL).

§ Visibility from observer

Set your observer location to see the next 7 days of passes ≥ 10°. The values pass through the URL so the page stays shareable.

No JS? Fill the form by hand. The geolocation button needs JavaScript.

§ Radio — SatNOGS DB

ModeDescriptionDownlinkUplink
FM Mode U - Transmitter 401.015 MHz

1 transmitter · refreshed weekly from db.satnogs.org